Theta_e
312 312 311 311 312 312 312 313 313 313 313 313 313 312 312 312 313 304 296 303 306 315 316 309 308 307 307 312 310 309 299 294 295 298 299 305 306 309 311 314 320 321 319 321 322
311 311 311 311 311 311 312 312 312 312 312 312 312 312 312 311 303 298 305 311 314 317 309 303 301 304 303 308 310 306 301 299 304 304 300 304 305 306 304 304 317 318 321 321 322
310 310 311 311 311 311 312 312 312 312 312 312 312 311 310 308 294 293 313 314 312 312 309 306 305 303 299 304 306 306 301 303 305 307 305 303 304 308 303 303 309 308 317 317 318
310 310 310 311 311 311 311 312 312 312 312 312 311 310 310 302 280 299 310 311 313 308 306 304 302 297 296 295 304 301 306 305 306 308 305 303 306 303 305 303 307 309 319 316 315
309 310 310 310 310 311 311 311 311 312 312 310 310 310 304 293 292 302 308 309 307 304 301 299 296 295 292 294 297 302 305 307 307 308 307 307 303 304 304 305 321 322 319 316 315
309 310 310 310 310 311 311 311 311 311 311 311 311 311 298 287 302 303 307 307 304 302 300 300 297 300 297 295 295 304 305 305 307 308 308 305 303 305 306 306 307 321 320 317 317
309 309 310 310 310 309 310 310 311 310 311 312 310 307 298 294 304 306 307 305 307 304 299 301 300 297 298 294 297 300 300 304 303 305 306 305 299 298 306 305 302 314 318 318 319
309 308 309 309 309 309 310 310 310 310 311 311 310 302 293 305 306 306 306 303 306 306 303 303 303 299 298 297 295 295 300 295 303 305 302 303 294 302 304 303 301 302 315 317 318
309 309 309 309 309 309 310 309 309 309 309 309 301 297 289 305 300 304 306 300 302 303 305 306 303 298 299 290 289 293 287 292 298 304 301 299 294 300 305 301 300 298 302 317 317
308 309 309 309 308 310 309 306 305 303 301 304 301 290 294 292 300 304 307 304 300 300 299 298 297 292 287 287 282 286 287 292 292 299 299 296 295 301 303 301 299 300 297 308 316
308 308 308 308 308 309 300 293 287 285 291 288 290 291 293 298 305 301 304 303 302 297 289 289 287 281 286 288 290 290 290 290 295 300 297 296 296 298 302 301 298 300 298 296 313
308 308 308 308 308 306 297 290 290 291 285 292 293 293 296 298 295 298 303 297 293 287 290 288 283 287 291 291 290 291 289 288 293 299 297 295 294 298 300 301 301 300 301 298 297
308 308 308 308 308 299 295 294 299 300 286 288 291 293 293 297 294 294 298 296 290 288 287 284 287 290 289 290 288 287 287 288 290 296 293 293 289 294 298 301 302 302 302 299 298
308 308 307 308 296 295 293 299 300 300 268 277 284 290 292 295 291 299 299 294 293 287 288 287 291 287 285 286 288 285 292 292 291 289 285 289 280 287 294 297 300 301 301 302 300
306 306 307 305 294 292 296 299 299 290 260 279 285 295 292 292 292 294 299 295 288 289 287 285 286 284 284 284 287 287 292 291 290 287 285 284 282 286 290 291 295 299 301 300 301
306 305 304 298 295 296 298 296 290 269 259 276 284 284 285 287 290 294 293 295 293 288 288 287 291 288 286 288 289 291 288 287 286 284 277 283 282 283 286 289 292 296 299 300 299
306 305 302 299 289 297 295 287 270 263 274 271 278 282 283 282 286 287 287 286 283 276 279 283 285 289 289 286 289 287 283 277 275 274 275 282 280 284 289 291 291 292 292 293 296
306 305 300 299 297 295 288 275 262 261 264 280 281 281 279 282 283 285 282 282 287 286 281 274 273 287 290 286 282 284 282 275 270 272 276 282 278 284 290 292 293 292 292 292 293
303 293 293 296 297 292 279 265 265 265 278 279 279 272 272 280 281 281 277 280 285 286 281 281 274 288 290 290 287 283 278 284 278 272 274 278 282 287 288 289 289 289 290 290 291
291 289 290 296 295 285 274 270 267 279 282 281 269 275 265 272 275 274 277 282 283 287 290 285 274 284 286 289 288 285 286 278 277 267 269 275 277 279 283 285 287 287 287 289 290
290 280 289 295 289 278 269 264 268 281 282 280 275 268 275 272 271 274 278 282 282 285 289 286 282 281 285 282 282 283 281 282 281 278 274 272 275 282 283 285 285 287 289 289 290
284 272 290 290 276 272 266 270 282 281 284 279 279 280 276 277 273 272 279 280 284 286 280 287 285 279 282 287 289 288 284 283 275 275 277 278 276 285 285 285 286 287 289 290 291
275 275 290 288 268 267 274 269 278 280 281 280 276 280 281 279 270 278 276 284 285 283 282 285 281 276 279 282 285 284 285 286 283 282 277 273 275 286 285 286 287 287 288 289 290
278 273 277 281 279 271 266 267 271 282 282 283 281 282 278 275 274 272 278 282 284 284 290 287 281 275 272 278 283 282 285 284 282 276 277 279 280 285 287 285 287 289 289 289 290
280 274 274 270 271 274 272 273 271 271 280 282 279 279 277 269 273 271 274 279 282 284 283 278 276 274 279 281 281 282 284 285 285 282 279 280 280 285 288 289 289 288 289 289 290
280 276 276 274 279 276 274 270 275 277 277 275 276 280 280 274 276 271 278 277 275 280 279 280 265 271 265 277 278 278 280 280 282 285 283 285 284 291 290 287 288 289 290 291 291
288 286 280 281 278 276 273 275 277 280 280 281 281 279 278 279 281 281 282 281 280 278 272 271 264 262 261 269 270 265 274 279 279 281 281 278 282 285 286 288 287 287 289 290 291
Wind_Speed
9 10 10 11 12 14 15 15 16 16 16 17 17 17 16 17 18 9 11 9 6 18 18 13 8 7 7 5 3 4 5 9 9 8 2 5 3 7 8 2 6 5 5 10 19
8 10 11 11 12 13 15 16 16 17 17 17 16 16 16 17 8 15 13 11 11 20 11 9 13 8 5 6 5 7 12 13 8 5 4 4 5 5 6 9 4 7 5 21 20
8 9 11 13 14 14 15 17 17 17 18 18 16 16 15 10 7 6 8 9 17 13 4 5 10 10 6 6 8 6 12 7 9 7 7 4 3 3 6 5 4 8 7 18 15
8 9 11 12 14 15 17 18 18 19 19 19 17 16 13 2 6 2 7 21 11 8 6 6 6 9 5 11 9 9 8 11 9 9 5 3 3 5 3 4 13 11 14 14 14
7 10 11 13 14 15 17 20 19 20 20 18 15 13 2 2 9 10 14 3 4 6 3 9 9 10 13 3 10 15 8 5 6 11 9 6 3 1 11 3 10 4 10 17 11
9 10 11 13 14 16 18 21 20 20 18 16 12 6 3 7 5 4 6 4 2 2 5 4 5 7 8 6 8 7 9 8 8 10 7 5 3 4 9 2 6 3 4 7 10
9 10 12 13 15 17 19 23 21 20 20 14 7 1 4 13 3 6 7 9 7 6 12 8 2 1 3 5 7 15 9 7 8 9 10 2 13 8 18 5 7 4 5 6 6
9 11 12 14 16 18 21 23 22 21 16 10 6 2 7 5 5 10 8 12 13 9 12 10 8 7 14 8 3 8 7 10 10 15 4 12 13 4 6 5 8 7 6 8 9
10 11 13 15 17 19 21 23 18 13 10 8 2 3 9 5 8 16 5 9 8 7 8 7 7 8 9 8 3 6 4 7 4 14 11 5 8 9 9 7 7 5 6 11 8
9 11 13 15 17 18 21 16 9 8 8 1 1 2 6 15 14 9 7 7 5 4 8 5 4 5 4 4 7 7 4 4 8 6 8 10 6 9 14 11 7 9 7 8 11
10 11 12 14 16 16 12 6 9 7 9 1 8 5 11 13 2 13 7 2 2 5 2 5 5 5 13 9 2 6 7 7 6 10 8 15 4 7 7 13 9 8 7 6 9
11 12 12 12 13 8 5 7 2 3 8 4 8 8 11 5 7 21 16 3 6 7 5 3 4 4 9 13 3 7 7 2 4 15 6 8 10 11 11 9 12 10 11 7 5
11 12 11 11 8 5 6 4 4 2 3 8 7 5 11 4 3 12 10 10 5 9 8 5 3 4 5 7 3 3 6 2 6 10 1 6 3 5 6 5 12 12 10 7 6
10 10 11 12 5 1 3 5 4 2 6 10 9 6 10 4 2 4 3 1 5 4 4 9 9 3 7 3 5 5 6 4 8 6 4 2 3 3 6 11 14 19 10 13 7
8 10 13 4 3 3 2 5 4 5 7 12 10 7 13 6 8 15 3 6 6 5 4 2 5 6 7 2 2 1 4 5 3 5 4 2 3 4 3 10 13 14 18 10 8
7 7 7 3 2 3 2 1 5 10 4 8 6 9 11 8 8 10 7 4 2 6 4 2 3 5 1 2 4 3 8 9 5 3 3 3 4 5 4 5 4 10 14 11 6
7 6 3 2 2 2 1 4 8 9 5 10 5 8 6 7 9 11 12 11 8 8 9 7 5 7 5 6 6 5 5 3 4 3 4 2 3 8 3 6 3 6 2 1 1
11 4 1 2 2 1 3 8 10 4 5 5 4 8 6 7 5 8 7 8 10 7 5 4 6 8 8 4 1 3 3 6 6 4 3 2 4 6 3 7 4 5 4 5 6
7 2 1 2 3 2 7 7 10 8 3 3 4 7 7 4 1 5 5 8 8 11 4 3 6 6 3 3 1 2 4 2 7 3 4 2 4 9 10 5 7 8 8 8 8
1 2 1 4 1 5 8 3 3 3 0 3 3 2 4 6 6 5 6 4 8 9 8 5 2 3 7 3 3 3 2 4 4 3 2 3 2 3 7 6 6 8 8 8 7
3 4 4 5 3 7 6 6 4 5 2 3 2 2 4 3 2 3 5 2 7 8 6 6 2 5 3 6 3 5 3 4 4 3 3 1 3 2 3 5 5 6 6 6 7
3 2 4 4 7 3 3 7 3 2 2 3 5 1 2 4 4 3 3 3 9 6 4 4 3 2 1 3 4 3 2 2 5 2 0 2 4 3 3 3 4 6 6 6 5
3 3 3 4 5 1 2 3 1 3 3 4 3 4 2 3 2 1 3 5 8 7 4 5 3 2 2 4 4 2 2 2 4 2 1 4 4 2 2 4 4 5 5 4 5
4 2 5 5 2 9 6 2 1 2 1 3 4 4 4 4 3 1 4 3 6 7 9 3 4 2 4 3 2 3 3 1 3 3 3 3 5 6 3 2 5 6 7 5 5
2 3 3 3 2 6 4 4 5 2 2 0 2 4 6 2 3 3 3 5 4 10 5 5 2 3 3 4 3 4 7 1 1 3 3 2 4 7 8 10 8 5 7 8 8
6 6 2 2 2 7 1 5 7 3 6 3 3 6 5 5 5 6 1 2 2 6 5 4 1 1 5 6 6 4 6 5 6 3 6 10 12 10 5 4 7 8 8 7 8
2 2 5 6 4 5 5 7 8 7 4 4 6 4 4 3 3 3 3 1 1 1 2 3 4 4 5 6 6 7 3 3 3 4 2 4 3 6 5 7 8 8 7 7 9
Wind_Direction
6 4 357 352 349 343 342 341 339 336 332 328 325 325 323 319 319 310 274 228 261 274 282 282 297 291 289 233 187 215 197 187 174 153 169 345 45 358 321 34 4 295 170 151 136
1 353 348 344 345 342 338 335 332 330 325 320 319 318 318 328 318 289 239 234 301 331 230 257 278 290 265 214 196 205 213 195 167 118 111 329 49 353 8 351 1 336 91 128 144
352 346 343 340 339 338 332 326 326 325 319 316 316 315 319 330 331 257 170 351 345 342 301 233 269 284 252 246 206 196 217 167 168 131 81 344 29 41 345 43 131 319 159 145 141
347 342 337 336 334 332 326 321 323 323 316 316 315 310 307 53 302 277 324 329 352 343 329 253 249 231 251 229 221 211 223 184 163 121 65 1 345 352 38 287 302 266 184 163 151
338 334 333 329 329 329 323 317 321 319 316 315 310 306 29 224 245 264 292 329 359 352 296 282 213 209 247 215 270 223 181 208 174 164 123 326 351 339 289 301 19 25 166 179 163
337 336 335 328 326 328 322 315 319 319 314 307 308 302 117 271 242 235 285 267 289 358 245 213 225 199 264 248 214 216 202 180 153 193 174 290 307 49 283 73 357 132 250 214 171
344 343 340 334 332 327 323 315 319 320 310 302 293 218 228 258 240 301 301 287 230 197 244 247 192 308 194 239 216 236 210 133 166 168 199 287 277 198 263 24 3 268 207 250 218
341 338 338 336 332 328 325 316 319 315 303 299 270 152 254 251 259 283 267 259 251 232 228 247 210 253 237 291 141 187 221 175 160 147 103 179 255 167 267 320 290 276 213 224 220
342 336 338 337 335 333 326 317 318 318 315 302 90 154 270 297 306 308 242 253 260 274 232 174 177 215 188 241 151 170 225 129 125 152 133 160 242 39 352 329 300 304 257 211 230
334 333 337 335 339 339 330 329 347 11 341 29 122 57 311 318 318 320 311 261 242 163 146 175 210 184 146 177 155 164 179 130 147 120 117 190 260 22 311 312 302 311 308 220 208
328 329 334 336 340 350 348 14 17 349 43 171 281 244 277 297 295 357 350 305 72 80 99 11 208 173 168 168 225 128 115 113 111 159 139 197 124 238 259 307 293 282 302 286 222
321 324 329 328 336 10 27 69 142 217 321 302 262 253 269 271 328 358 348 36 51 64 20 95 81 130 130 186 27 140 124 137 72 157 163 174 195 209 195 221 253 265 273 260 263
328 322 324 324 329 56 91 75 329 168 275 302 271 272 310 7 4 340 0 333 53 98 110 47 228 120 101 148 65 59 113 92 113 150 266 121 312 217 254 245 252 258 244 255 241
341 343 343 335 78 270 74 318 343 1 68 325 338 343 335 329 10 280 11 2 345 12 36 83 306 61 68 60 98 48 114 160 120 122 169 162 259 235 204 228 233 256 251 246 238
337 346 343 63 163 61 293 323 330 65 53 308 309 304 312 48 297 349 327 10 25 332 80 65 32 56 69 19 61 196 94 108 93 93 83 35 88 265 184 238 249 254 261 246 225
334 345 358 32 42 147 297 19 57 43 279 330 318 341 355 359 360 323 3 29 196 357 35 41 316 59 332 342 41 124 76 47 61 77 41 239 138 276 186 222 258 248 245 255 248
337 335 341 97 219 329 9 69 41 92 326 311 336 339 339 335 2 3 13 41 20 17 6 360 8 336 26 48 6 71 58 35 28 13 218 327 108 262 227 252 320 319 158 14 324
327 311 291 166 302 127 56 55 78 229 226 292 340 318 12 345 350 21 14 15 22 14 39 40 348 5 332 32 261 56 126 146 173 174 214 109 220 254 295 257 352 32 32 31 36
340 10 53 257 313 90 74 50 184 200 211 342 343 42 333 328 357 49 31 10 16 8 24 20 331 323 262 315 38 339 55 138 106 8 62 239 292 308 19 26 41 16 16 5 7
48 49 259 314 339 73 74 178 163 203 56 79 111 115 351 310 41 48 16 309 336 8 330 4 48 2 292 308 350 86 191 53 1 105 193 293 266 268 2 19 15 15 360 345 351
49 46 260 344 55 47 126 203 201 229 163 109 148 22 292 348 96 53 350 294 348 320 335 348 105 319 7 17 2 2 24 51 110 120 140 121 275 273 334 352 3 1 0 350 347
100 50 294 45 55 43 118 170 172 145 118 120 108 79 220 310 20 67 66 320 336 331 12 1 4 73 337 325 30 30 354 24 121 235 148 128 281 339 359 23 6 4 357 350 349
111 227 325 84 124 46 315 339 148 133 181 160 125 139 327 332 75 38 305 289 358 19 5 326 4 48 351 353 7 338 27 3 97 82 238 127 250 316 355 31 20 9 344 345 348
103 88 329 52 108 129 136 217 32 289 208 165 133 113 70 359 6 257 346 338 331 0 15 9 47 81 173 218 265 304 335 321 161 121 228 209 304 271 342 345 315 306 283 308 341
88 235 202 196 289 121 105 145 132 174 326 180 27 155 143 106 353 339 305 335 14 355 23 83 82 21 303 281 257 250 281 20 255 216 202 343 311 303 306 321 318 322 329 336 338
148 145 344 148 89 102 21 210 157 165 138 252 165 181 153 148 189 211 354 103 226 348 29 360 219 88 321 343 352 277 272 279 268 229 242 243 267 260 296 322 18 19 18 8 347
214 110 108 175 127 114 196 171 189 148 212 206 169 140 165 204 178 219 214 215 218 23 11 35 94 50 270 338 343 350 230 258 258 259 253 244 277 340 348 39 23 11 11 15 2